Weather History for KMVL - September, 2012

Change the Weather History Date:

Wednesday, September 12, 2012

  Actual Average Record
Temperature  
Mean Temperature 61 °F 59 °F  
Max Temperature 80 °F 72 °F 82 °F (2005)
Min Temperature 42 °F 47 °F 35 °F (2006)
Degree Days  
Heating Degree Days 4 6  
Month to date heating degree days 44 60  
Since 1 July heating degree days 86 155  
Cooling Degree Days 0 1  
Month to date cooling degree days 22 12  
Year to date cooling degree days 406 259  
Growing Degree Days 11 (Base 50)    
Moisture  
Dew Point 47 °F    
Average Humidity 68    
Maximum Humidity 100    
Minimum Humidity 35    
Precipitation  
Precipitation 0.00 in 0.11 in 0.51 in (2013)
Month to date precipitation 1.87 1.20  
Year to date precipitation 12.09 24.96  
Sea Level Pressure  
Sea Level Pressure 30.32 in    
Wind  
Wind Speed 3 mph (South)    
Max Wind Speed 10 mph    
Max Gust Speed 15 mph    
Visibility 8 miles    
Events Fog    
T = Trace of Precipitation, MM = Missing Value Source: NWS Daily Summary

Daily Weather History Graph

Daily Weather History Graph

Search for Another Location

Airport or City:

Trip Planner

Search our weather history database for the weather conditions in past years. The results will help you decide how hot, cold, wet, or windy it might be!

Date:

Astronomy

Sep. 12, 2012 Rise Set
Actual Time 6:26 AM EDT 7:05 PM EDT
Civil Twilight 5:57 AM EDT 7:35 PM EDT
Nautical Twilight 5:22 AM EDT 8:09 PM EDT
Astronomical Twilight 4:45 AM EDT 8:45 PM EDT
Moon 2:33 AM EDT (9/12) 4:57 PM EDT (9/12)
Length of Visible Light 13h 38m
Length of Day
12h 39m
Waning Crescent, 14% of the Moon is Illuminated
Sep 12
Waning Crescent
Sep 15
New
Sep 22
First Quarter
Sep 29
Full
Oct 8
Last Quarter

Hourly Weather History & Observations

Time (EDT) Temp. Heat Index Dew Point Humidity Pressure Visibility Wind Dir Wind Speed Gust Speed Precip Events Conditions
12:54 AM 45.0 °F - 43.0 °F 93% 30.28 in 10.0 mi Calm Calm - N/A   Clear
1:08 AM 44.6 °F - 42.8 °F 93% 30.28 in 10.0 mi Calm Calm - N/A   Partly Cloudy
1:54 AM 45.0 °F - 43.0 °F 93% 30.30 in 10.0 mi Calm Calm - N/A   Clear
2:54 AM 43.0 °F - 41.0 °F 93% 30.31 in 10.0 mi Calm Calm - N/A   Clear
3:18 AM 42.8 °F - 41.0 °F 93% 30.30 in 10.0 mi Calm Calm - N/A   Partly Cloudy
3:54 AM 43.0 °F - 41.0 °F 93% 30.31 in 10.0 mi Calm Calm - N/A   Clear
4:02 AM 42.8 °F - 41.0 °F 93% 30.30 in 10.0 mi Calm Calm - N/A   Partly Cloudy
4:16 AM 42.8 °F - 39.2 °F 87% 30.31 in 10.0 mi Calm Calm - N/A   Mostly Cloudy
4:50 AM 42.8 °F - 42.8 °F 100% 30.32 in 1.8 mi Calm Calm - N/A   Overcast
4:54 AM 43.0 °F - 42.1 °F 97% 30.33 in 1.0 mi Calm Calm - N/A   Overcast
5:01 AM 42.8 °F - 42.8 °F 100% 30.32 in 0.8 mi Calm Calm - N/A   Mist
5:54 AM 43.0 °F - 42.1 °F 97% 30.34 in 0.2 mi Calm Calm - N/A Fog Fog
6:54 AM 44.1 °F - 43.0 °F 96% 30.36 in 0.5 mi Calm Calm - N/A Fog Fog
7:54 AM 45.0 °F - 44.1 °F 97% 30.37 in 0.2 mi Calm Calm - N/A Fog Fog
8:09 AM 46.4 °F - 46.4 °F 100% 30.35 in 1.2 mi Calm Calm - N/A   Overcast
8:14 AM 46.4 °F - 46.4 °F 100% 30.35 in 3.0 mi Calm Calm - N/A   Mostly Cloudy
8:46 AM 50.0 °F - 48.2 °F 94% 30.35 in 10.0 mi Calm Calm - N/A   Scattered Clouds
8:54 AM 52.0 °F - 48.9 °F 89% 30.37 in 10.0 mi Calm Calm - N/A   Partly Cloudy
9:54 AM 59.0 °F - 51.1 °F 75% 30.36 in 10.0 mi SE 4.6 mph - N/A   Clear
10:54 AM 66.0 °F - 53.1 °F 63% 30.35 in 10.0 mi SSE 3.5 mph - N/A   Clear
11:54 AM 72.0 °F - 54.0 °F 53% 30.33 in 10.0 mi South 4.6 mph - N/A   Clear
12:54 PM 77.0 °F - 48.9 °F 37% 30.32 in 10.0 mi Variable 3.5 mph - N/A   Clear
1:54 PM 77.0 °F - 48.9 °F 37% 30.30 in 10.0 mi Variable 6.9 mph - N/A   Clear
2:54 PM 79.0 °F - 48.9 °F 35% 30.28 in 10.0 mi Variable 6.9 mph - N/A   Clear
3:54 PM 80.1 °F - 52.0 °F 38% 30.27 in 10.0 mi SSW 8.1 mph - N/A   Clear
4:54 PM 80.1 °F 79.9 °F 53.1 °F 39% 30.26 in 10.0 mi Variable 6.9 mph - N/A   Clear
5:54 PM 77.0 °F - 48.0 °F 36% 30.26 in 10.0 mi Variable 4.6 mph - N/A   Clear
6:54 PM 71.1 °F - 50.0 °F 47% 30.27 in 10.0 mi SW 3.5 mph - N/A   Clear
7:54 PM 68.0 °F - 51.1 °F 55% 30.29 in 10.0 mi South 4.6 mph - N/A   Clear
8:54 PM 61.0 °F - 53.1 °F 75% 30.30 in 10.0 mi South 3.5 mph - N/A   Clear
9:54 PM 57.9 °F - 52.0 °F 81% 30.32 in 10.0 mi Calm Calm - N/A   Clear
10:54 PM 55.9 °F - 52.0 °F 87% 30.32 in 10.0 mi Calm Calm - N/A   Clear
11:54 PM 52.0 °F - 48.9 °F 89% 30.32 in 10.0 mi Calm Calm - N/A   Clear